KAVALA/CHRISOUPOLIS current weather conditions

sailwx.info

Wind from 080 at 11 knots

Air temperature 6.0° C
Visibility: greater than 5.4 NM
Dewpoint 4.0° C

Last reported at 2017-Jan-18 08:20 UTC.
Time now 2017-Jan-18 10:15 UTC

Location: N 40°55' E 024°37'.
View on Google Maps.

See reports from other nearby stations

  
Tides and Currents Weather Stations Pressure Air Temp Water Temp Dewpoint Dewpoint Depression Visibility Wind Speed Wind Dir Waves Ship Positions
date/time (UTC)wind fromknots sea level pressurealtimeterstation pressurevisibilityair tempwater tempwave heightnotes
2017-Jan-18 08:50 070 12 5.4 6.0
2017-Jan-18 08:20 080 11 5.4 6.0
2017-Jan-18 07:50 080 8 5.4 6.0
2017-Jan-18 07:20 080 7 5.4 6.0
2017-Jan-18 06:50 110 6 5.4 6.0
2017-Jan-18 06:20 080 8 5.4 6.0
2017-Jan-18 05:50 080 8 5.4 6.0
2017-Jan-18 05:20 090 8 5.4 6.0
2017-Jan-18 04:50 090 8 5.4 6.0
2017-Jan-18 04:20 090 6 5.4 6.0
2017-Jan-18 03:50 070 5 5.4 6.0
2017-Jan-18 03:20 060 4 5.4 6.0
2017-Jan-18 02:50 080 7 5.4 6.0
2017-Jan-18 01:50 100 7 5.4 6.0
2017-Jan-18 00:50 090 7 5.4 6.0
2017-Jan-17 23:50 090 7 5.4 6.0
2017-Jan-17 22:50 110 6 5.4 5.0 Light rain.
2017-Jan-17 21:50 060 7 5.4 6.0 Light rain.
2017-Jan-17 20:50 050 7 5.4 6.0 Light rain.
2017-Jan-17 20:20 070 9 5.4 6.0 Light rain.
2017-Jan-17 19:50 070 9 5.4 6.0 Light rain.
2017-Jan-17 19:20 050 9 5.4 7.0 Light rain.
2017-Jan-17 18:50 050 11 5.4 7.0
2017-Jan-17 18:20 060 13 5.4 7.0
2017-Jan-17 17:50 060 12 5.4 7.0
2017-Jan-17 17:20 060 12 5.4 7.0
2017-Jan-17 16:50 070 11 5.4 7.0
2017-Jan-17 16:20 070 9 5.4 7.0
2017-Jan-17 15:50 070 9 5.4 7.0
2017-Jan-17 15:20 070 9 5.4 7.0
2017-Jan-17 14:50 060 8 5.4 7.0
2017-Jan-17 14:20 050 7 5.4 6.0
2017-Jan-17 13:50 080 5 5.4 6.0 Light rain.
2017-Jan-17 13:20 050 5 5.4 6.0 Light rain.
2017-Jan-17 12:50 060 7 5.4 6.0 Light rain.
2017-Jan-17 12:20 060 7 4.9 7.0 Rain.
2017-Jan-17 11:50 070 6 5.4 7.0 Light rain.
2017-Jan-17 11:20 060 7 5.4 7.0 Light rain.
2017-Jan-17 10:50 060 7 5.4 7.0 Light rain.
2017-Jan-17 10:20 070 7 5.4 7.0
2017-Jan-17 09:50 070 7 5.4 7.0
2017-Jan-17 09:20 070 8 5.4 7.0
2017-Jan-17 08:50 080 7 5.4 7.0
2017-Jan-17 08:20 090 6 5.4 6.0
2017-Jan-17 07:50 090 6 5.4 5.0
2017-Jan-17 07:20 080 5 5.4 5.0
2017-Jan-17 06:50 090 6 5.4 5.0
2017-Jan-17 06:20 060 2 5.4 5.0
2017-Jan-17 05:50 060 8 5.4 5.0
2017-Jan-17 05:20 070 8 5.4 5.0
2017-Jan-17 04:50 070 7 5.4 5.0 Light rain.
2017-Jan-17 04:20 080 5 5.4 4.0 Light rain.
2017-Jan-17 03:50 090 5 5.4 4.0 Light rain.
2017-Jan-17 03:20 070 6 5.4 4.0 Light drizzle.
2017-Jan-17 02:50 070 7 5.4 4.0
2017-Jan-17 01:50 080 11 5.4 4.0
2017-Jan-17 00:50 080 9 5.4 4.0
2017-Jan-16 23:50 080 8 5.4 4.0
2017-Jan-16 21:50 060 9 5.4 3.0
2017-Jan-16 20:50 070 8 5.4 4.0
2017-Jan-16 20:20 070 8 5.4 4.0
2017-Jan-16 19:50 080 7 5.4 4.0
2017-Jan-16 19:20 070 8 5.4 4.0
2017-Jan-16 18:50 070 4 5.4 4.0
2017-Jan-16 18:20 060 4 5.4 4.0
2017-Jan-16 17:50 5.4 4.0
2017-Jan-16 17:20 100 4 5.4 4.0
2017-Jan-16 16:50 110 5 5.4 4.0
2017-Jan-16 16:20 100 5 5.4 4.0
2017-Jan-16 15:50 070 5 5.4 4.0
2017-Jan-16 15:20 070 4 5.4 5.0
2017-Jan-16 14:50 050 5 5.4 5.0
2017-Jan-16 14:20 050 6 5.4 5.0
2017-Jan-16 13:50 060 6 5.4 5.0
2017-Jan-16 13:20 090 6 5.4 5.0
2017-Jan-16 12:50 090 6 5.4 5.0
2017-Jan-16 12:20 080 7 5.4 5.0
2017-Jan-16 11:50 070 7 5.4 5.0
2017-Jan-16 11:20 070 8 5.4 4.0
2017-Jan-16 10:50 080 6 5.4 4.0 Light rain.
2017-Jan-16 10:20 080 5 5.4 4.0 Light rain.